| time (UTC) | temp C | wind direction | speed KPH | gust KPH | rain 1hr cm | rain 24hr cm | rain mn cm | humidity % | barometer mb |
| 20260505163009 | 10 | 337 | 4.8 | 8.0 | 0.00 | 0.00 | 0.00 | 86 | 1021.9 |
| 20260505161504 | 11 | 340 | 4.8 | 8.0 | 0.00 | 0.00 | 0.00 | 86 | 1022.1 |
| 20260505153057 | 11 | 312 | 3.2 | 6.4 | 0.00 | 0.00 | 0.00 | 84 | 1022.5 |
| 20260505151552 | 12 | 336 | 3.2 | 8.0 | 0.00 | 0.00 | 0.00 | 81 | 1022.4 |
| 20260505124540 | 13 | 272 | 4.8 | 12.9 | 0.00 | 0.00 | 0.00 | 81 | 1022.9 |
| 20260505123040 | 13 | 293 | 6.4 | 12.9 | 0.00 | 0.00 | 0.00 | 81 | 1023.0 |
| 20260505121540 | 13 | 327 | 6.4 | 11.3 | 0.00 | 0.00 | 0.00 | 80 | 1023.2 |
| 20260505120039 | 13 | 296 | 6.4 | 14.5 | 0.00 | 0.00 | 0.00 | 80 | 1023.3 |
| 20260505114540 | 13 | 345 | 8.0 | 12.9 | 0.00 | 0.00 | 0.00 | 81 | 1023.4 |
| 20260505113044 | 13 | 265 | 6.4 | 12.9 | 0.00 | 0.00 | 0.00 | 80 | 1023.3 |
| 20260505111535 | 14 | 281 | 1.6 | 12.9 | 0.00 | 0.00 | 0.00 | 80 | 1023.1 |
| 20260505101549 | 15 | 203 | 6.4 | 17.7 | 0.00 | 0.00 | 0.00 | 80 | 1022.8 |
| 20260505100053 | 15 | 217 | 6.4 | 17.7 | 0.00 | 0.00 | 0.00 | 80 | 1022.8 |
| 20260505094532 | 15 | 213 | 8.0 | 25.7 | 0.00 | 0.00 | 0.00 | 81 | 1022.8 |
| 20260505093028 | 15 | 232 | 12.9 | 24.1 | 0.00 | 0.00 | 0.00 | 85 | 1022.5 |
| 20260505091524 | 15 | 267 | 12.9 | 25.7 | 0.00 | 0.00 | 0.00 | 82 | 1022.2 |
| 20260505090023 | 15 | 227 | 9.7 | 25.7 | 0.00 | 0.00 | 0.00 | 86 | 1022.0 |
| 20260505084522 | 15 | 210 | 9.7 | 24.1 | 0.00 | 0.00 | 0.00 | 87 | 1021.8 |
| 20260505083023 | 15 | 210 | 11.3 | 29.0 | 0.00 | 0.00 | 0.00 | 82 | 1021.5 |
| 20260505081517 | 15 | 250 | 17.7 | 29.0 | 0.00 | 0.00 | 0.00 | 80 | 1021.2 |
| 20260505080014 | 15 | 233 | 19.3 | 32.2 | 0.00 | 0.00 | 0.00 | 80 | 1021.0 |
| 20260505074511 | 15 | 206 | 14.5 | 38.6 | 0.00 | 0.00 | 0.00 | 82 | 1020.6 |
| 20260505073028 | 15 | 191 | 14.5 | 25.7 | 0.00 | 0.00 | 0.00 | 84 | 1020.4 |
| 20260505071508 | 15 | 214 | 11.3 | 20.9 | 0.00 | 0.00 | 0.00 | 85 | 1020.3 |
| 20260505070006 | 15 | 221 | 11.3 | 24.1 | 0.00 | 0.00 | 0.00 | 84 | 1020.0 |
| 20260505064502 | 16 | 183 | 9.7 | 30.6 | 0.00 | 0.00 | 0.00 | 82 | 1019.8 |
| 20260505063001 | 16 | 223 | 17.7 | 33.8 | 0.00 | 0.00 | 0.00 | 78 | 1019.6 |
| 20260505061601 | 16 | 210 | 16.1 | 32.2 | 0.00 | 0.00 | 0.00 | 79 | 1019.6 |
| 20260505060103 | 16 | 212 | 17.7 | 29.0 | 0.00 | 0.00 | 0.00 | 78 | 1019.5 |
| 20260505054557 | 16 | 197 | 17.7 | 33.8 | 0.00 | 0.00 | 0.00 | 79 | 1019.3 |
| 20260505053056 | 16 | 202 | 19.3 | 32.2 | 0.00 | 0.00 | 0.00 | 78 | 1019.1 |
| 20260505051557 | 16 | 203 | 14.5 | 29.0 | 0.00 | 0.00 | 0.00 | 79 | 1019.1 |
| 20260505041548 | 16 | 238 | 12.9 | 29.0 | 0.00 | 0.00 | 0.00 | 78 | 1018.4 |
| 20260505040049 | 16 | 236 | 14.5 | 25.7 | 0.00 | 0.00 | 0.00 | 77 | 1018.4 |
| 20260505034550 | 17 | 243 | 14.5 | 35.4 | 0.00 | 0.00 | 0.00 | 75 | 1018.3 |
| 20260505033047 | 16 | 219 | 17.7 | 32.2 | 0.00 | 0.00 | 0.00 | 76 | 1018.3 |
| 20260505031550 | 16 | 211 | 17.7 | 29.0 | 0.00 | 0.00 | 0.00 | 77 | 1018.2 |
| 20260505030044 | 16 | 213 | 16.1 | 30.6 | 0.00 | 0.00 | 0.00 | 78 | 1018.2 |
| 20260505024543 | 16 | 219 | 14.5 | 30.6 | 0.00 | 0.00 | 0.00 | 78 | 1018.2 |
| 20260505023049 | 16 | 231 | 16.1 | 29.0 | 0.00 | 0.00 | 0.00 | 77 | 1018.3 |
| 20260505021543 | 16 | 205 | 14.5 | 29.0 | 0.00 | 0.00 | 0.00 | 77 | 1018.3 |
| 20260505020041 | 16 | 203 | 14.5 | 27.4 | 0.00 | 0.00 | 0.00 | 76 | 1018.4 |
| 20260505014539 | 16 | 207 | 11.3 | 25.7 | 0.00 | 0.00 | 0.00 | 74 | 1018.5 |
| 20260505013037 | 16 | 206 | 11.3 | 22.5 | 0.00 | 0.00 | 0.00 | 73 | 1018.6 |
| 20260505011538 | 16 | 247 | 8.0 | 16.1 | 0.00 | 0.00 | 0.00 | 73 | 1018.5 |
| 20260505010100 | 16 | 227 | 11.3 | 19.3 | 0.00 | 0.00 | 0.00 | 74 | 1018.5 |
| 20260505004533 | 17 | 212 | 8.0 | 20.9 | 0.00 | 0.00 | 0.00 | 68 | 1018.2 |
| 20260505003032 | 17 | 229 | 9.7 | 20.9 | 0.00 | 0.00 | 0.00 | 65 | 1017.9 |
| 20260505001528 | 17 | 189 | 4.8 | 11.3 | 0.00 | 0.00 | 0.00 | 67 | 1017.8 |
| 20260505000040 | 17 | 253 | 8.0 | 19.3 | 0.00 | 0.00 | 0.00 | 64 | 1017.6 |
| 20260504234524 | 17 | 220 | 3.2 | 16.1 | 0.00 | 0.00 | 0.00 | 65 | 1017.6 |
| 20260504233022 | 16 | 243 | 4.8 | 14.5 | 0.00 | 0.00 | 0.00 | 66 | 1017.6 |
| 20260504231519 | 16 | 304 | 8.0 | 16.1 | 0.00 | 0.00 | 0.00 | 68 | 1017.4 |
| 20260504230020 | 16 | 273 | 6.4 | 17.7 | 0.00 | 0.00 | 0.00 | 68 | 1017.1 |
| 20260504224513 | 16 | 236 | 8.0 | 14.5 | 0.00 | 0.00 | 0.00 | 68 | 1017.2 |
| 20260504223012 | 15 | 288 | 4.8 | 12.9 | 0.00 | 0.00 | 0.00 | 73 | 1017.1 |
| 20260504221517 | 14 | 322 | 6.4 | 11.3 | 0.00 | 0.00 | 0.00 | 75 | 1017.0 |
| 20260504220003 | 13 | 313 | 8.0 | 11.3 | 0.00 | 0.00 | 0.00 | 75 | 1016.7 |
| 20260504214500 | 13 | 297 | 6.4 | 11.3 | 0.00 | 0.00 | 0.00 | 76 | 1016.5 |
| 20260504213112 | -17 | 0.0 | 0.0 | 0.00 | 0.00 | 0.00 | 1016.3 | ||
| 20260504211553 | -17 | 0.0 | 0.0 | 0.00 | 0.00 | 0.00 | 1016.0 | ||
| 20260504210049 | -17 | 0.0 | 0.0 | 0.00 | 0.00 | 0.00 | 1015.7 | ||
| 20260504204547 | -17 | 0.0 | 0.0 | 0.00 | 0.00 | 0.00 | 1015.4 | ||
| 20260504203048 | -17 | 0.0 | 0.0 | 0.00 | 0.00 | 0.00 | 1015.1 | ||
| 20260504201538 | -17 | 0.0 | 0.0 | 0.00 | 0.00 | 0.00 | 1014.9 | ||
| 20260504200032 | -17 | 0.0 | 0.0 | 0.00 | 0.00 | 0.00 | 1014.5 | ||
| 20260504194537 | -17 | 0.0 | 0.0 | 0.00 | 0.00 | 0.00 | 1014.3 | ||
| 20260504193024 | -17 | 0.0 | 0.0 | 0.00 | 0.00 | 0.00 | 1014.2 | ||
| 20260504191530 | -17 | 0.0 | 0.0 | 0.00 | 0.00 | 0.00 | 1014.0 | ||
| 20260504190015 | -17 | 0.0 | 0.0 | 0.00 | 0.00 | 0.00 | 1013.7 | ||
| 20260504184514 | -17 | 321 | 8.0 | 14.5 | 0.00 | 0.00 | 0.00 | 73 | 1013.6 |
| 20260504183005 | 13 | 303 | 8.0 | 12.9 | 0.00 | 0.00 | 0.00 | 72 | 1013.5 |
| 20260504181505 | 13 | 308 | 11.3 | 17.7 | 0.00 | 0.00 | 0.00 | 73 | 1013.2 |
| 20260504180002 | 12 | 297 | 8.0 | 12.9 | 0.00 | 0.00 | 0.00 | 75 | 1013.3 |
| 20260504174501 | 12 | 295 | 6.4 | 12.9 | 0.00 | 0.00 | 0.00 | 77 | 1013.1 |
| 20260504173100 | 12 | 307 | 4.8 | 9.7 | 0.00 | 0.00 | 0.00 | 76 | 1013.1 |
| 20260504171600 | 13 | 344 | 4.8 | 17.7 | 0.00 | 0.00 | 0.00 | 73 | 1012.8 |